sat.trackr.live / text

‹ back to catalog

STARLINK-37244

NORAD 68529 · 2026-068X

PAYLOAD ACTIVE UNKNOWN

§ Identity

Operator
Country
US
Launch date
2026-03-30
Launch site
AFETR
Launch vehicle
Mass (kg)
RCS (m²)

Purposes: comms

External: N2YO · Heavens-Above · Gunter

§ Orbital elements

Epoch: 2026-05-25T03:17:42.277632Z

Period
93.85 min
Inclination
53.1584°
Eccentricity
0.0001383
Mean motion
15.34398520 rev/d
Perigee alt
461.8 km
Apogee alt
463.7 km
Semi-major
6,840.8 km
B*
7.2527e-4
RAAN
133.1720°
Arg perigee
65.6959°
Mean anomaly
294.4188°
Rev number
866

§ Raw data

STARLINK-372441 68529U 26068X   26145.13729488  .00024206  00000+0  72527-3 0  99912 68529  53.1584 133.1720 0001383  65.6959 294.4188 15.34398520  8666

JSON: /api/v1/satellites/68529 · /tle

For live sub-satellite position, see the globe view (requires WebGL).

§ Visibility from observer

Set your observer location to see the next 7 days of passes ≥ 10°. The values pass through the URL so the page stays shareable.

No JS? Fill the form by hand. The geolocation button needs JavaScript.